Location: Dugenta
(41.1333°N, 14.4500°E)
Time: 14:17:38
(UTC+00:00)

DMSP B5D2-2 - Pass Details

Date: 03 March 2021
Orbit: 789 x 807 km, 98.3° (Epoch: 14 April)

Event Time Altitude Azimuth Distance (km) Brightness Sun altitude
Rises 18:08:23 0° 17° (NNE) 3,306 7.2 -14.5°
Reaches altitude 10° 18:10:47 10° 22° (NNE) 2,369 6.4 -15.0°
Maximum altitude 18:15:54 54° 100° (E) 960 4.1 -15.9°
Drops below altitude 10° 18:20:57 10° 177° (S) 2,345 6.4 -16.9°
Sets 18:23:19 0° 182° (S) 3,269 7.2 -17.3°
